TimeEDT,TemperatureF,Dew PointF,Humidity,Sea Level PressureIn,VisibilityMPH,Wind Direction,Wind SpeedMPH,Gust SpeedMPH,PrecipitationIn,Events,Conditions,WindDirDegrees,DateUTC
12:54 AM,30.9,12.0,46,29.89,10.0,NNE,10.4,-,N/A,,Partly Cloudy,20,2013-03-17 04:54:00
1:54 AM,28.9,12.0,49,29.91,10.0,North,5.8,-,N/A,,Clear,10,2013-03-17 05:54:00
2:54 AM,30.0,10.9,45,29.90,10.0,NNW,4.6,-,N/A,,Partly Cloudy,340,2013-03-17 06:54:00
3:54 AM,30.0,10.9,45,29.90,10.0,North,4.6,-,N/A,,Partly Cloudy,350,2013-03-17 07:54:00
4:54 AM,28.9,10.9,47,29.93,10.0,NNW,5.8,-,N/A,,Partly Cloudy,330,2013-03-17 08:54:00
5:54 AM,28.9,10.9,47,29.94,10.0,NNW,6.9,-,N/A,,Clear,330,2013-03-17 09:54:00
6:54 AM,28.0,10.9,49,29.96,10.0,NW,4.6,-,N/A,,Scattered Clouds,320,2013-03-17 10:54:00
7:54 AM,28.9,12.0,49,30.00,10.0,WNW,9.2,-,N/A,,Scattered Clouds,290,2013-03-17 11:54:00
8:54 AM,30.0,12.0,47,30.03,10.0,NW,15.0,-,N/A,,Scattered Clouds,320,2013-03-17 12:54:00
9:54 AM,32.0,10.9,42,30.04,10.0,WNW,10.4,-,N/A,,Scattered Clouds,300,2013-03-17 13:54:00
10:54 AM,34.0,8.1,34,30.03,10.0,West,13.8,20.7,N/A,,Scattered Clouds,280,2013-03-17 14:54:00
11:54 AM,37.0,10.0,33,30.04,10.0,NW,18.4,-,N/A,,Scattered Clouds,310,2013-03-17 15:54:00
12:54 PM,37.9,8.1,29,30.04,10.0,NNW,17.3,26.5,N/A,,Scattered Clouds,330,2013-03-17 16:54:00
1:54 PM,37.9,6.1,27,30.04,10.0,NW,18.4,-,N/A,,Mostly Cloudy,320,2013-03-17 17:54:00
2:54 PM,37.9,3.9,24,30.04,10.0,NW,16.1,28.8,N/A,,Overcast,320,2013-03-17 18:54:00
3:54 PM,36.0,1.9,24,30.07,10.0,NW,17.3,25.3,N/A,,Overcast,320,2013-03-17 19:54:00
4:54 PM,36.0,3.0,25,30.09,10.0,WNW,16.1,21.9,N/A,,Overcast,300,2013-03-17 20:54:00
5:54 PM,36.0,3.9,26,30.12,10.0,NW,10.4,21.9,N/A,,Overcast,320,2013-03-17 21:54:00
6:54 PM,34.0,5.0,30,30.16,10.0,NNW,11.5,-,N/A,,Mostly Cloudy,330,2013-03-17 22:54:00
7:54 PM,33.1,3.9,29,30.20,10.0,NNW,11.5,-,N/A,,Scattered Clouds,330,2013-03-17 23:54:00
8:54 PM,32.0,3.9,31,30.24,10.0,NNW,10.4,-,N/A,,Partly Cloudy,340,2013-03-18 00:54:00
9:54 PM,30.0,3.9,33,30.27,10.0,North,9.2,-,N/A,,Partly Cloudy,350,2013-03-18 01:54:00
10:54 PM,28.0,3.9,36,30.30,10.0,North,12.7,-,N/A,,Clear,10,2013-03-18 02:54:00
11:54 PM,27.0,1.9,34,30.32,10.0,North,13.8,-,N/A,,Clear,350,2013-03-18 03:54:00